Regional Weather Roundup
Issued by NWS

Home | Current Version | Previous Version | Text Only | Print | Product List | Glossary On
Versions: 1 2 3 4 5 6 7 8 9 10 11 12 13 14 15 16 17 18 19 20 21 22 23 24 25 26 27 28 29 30 31 32 33 34 35 36 37 38 39 40 41 42 43 44 45 46 47 48 49 50
000
ASUS44 KJAN 060503
RWRMS

MISSISSIPPI HOURLY WEATHER ROUNDUP
NATIONAL WEATHER SERVICE JACKSON MS
1100 PM CST THU MAR 05 2015

NOTE: "FAIR: INDICATES FEW OR NO CLOUDS BELOW 12,000 FEET WITH NO
SIGNIFICANT WEATHER AND/OR OBSTRUCTIONS TO VISIBILITY.

MSZ001>002-007>008-010>013-018>021-025>028-034>036-060600-
NORTHWEST MISSISSIPPI

CITY           SKY/WX    TMP DP  RH WIND       PRES   REMARKS
CLARKSDALE     FAIR      25  19  80 CALM      30.61S
CLEVELAND      FAIR      26  20  79 N8        30.58F WCI  18
GREENWOOD      CLEAR     25  14  63 N8        30.57S WCI  16
GREENVILLE     CLEAR     27  18  69 MISG      30.59S
OLIVE BRANCH   CLEAR     19  14  79 CALM      30.59S
OXFORD         FAIR      19  10  68 N3        30.58F
TUNICA         PTCLDY    23  19  86 N3        30.62S
$$

MSZ003>006-009-014>017-022>024-029>033-037>039-060600-
NORTHEAST MISSISSIPPI

CITY           SKY/WX    TMP DP  RH WIND       PRES   REMARKS
COLUMBUS AFB   CLEAR     25  17  71 N8        30.53S WCI  16
CORINTH        FAIR      23  10  58 N9        30.56R WCI  13
GOLDN TRIANGLE CLEAR     27  18  69 N9        30.51S WCI  17
STARKVILLE     FAIR      27  19  74 CALM      30.53F
TUPELO         CLEAR     23  13  65 N12       30.54F WCI  12
$$

MSZ040-058-060600-
CENTRAL MISSISSIPPI

CITY           SKY/WX    TMP DP  RH WIND       PRES   REMARKS
JACKSON INTL   PTCLDY    27  17  66 N12       30.53S WCI  17
JACKSON HAWKNS CLEAR     26  17  68 N7        30.54S WCI  18
MERIDIAN KEY   PTCLDY    27  19  72 N10       30.50S WCI  17
MERIDIAN NAS   PTCLDY    26  20  77 N7        30.51R WCI  18
VICKSBURG      CLEAR     29  17  61 N10       30.58S WCI  20
$$

MSZ059>079-060600-
SOUTH MISSISSIPPI

CITY           SKY/WX    TMP DP  RH WIND       PRES   REMARKS
BROOKHAVEN     FAIR      28  23  80 CALM      30.52S
HATTIESBURG    PTCLDY    32  20  61 N14       30.48F WCI  22
MCCOMB         CLEAR     28  17  63 N12       30.49F WCI  18
NATCHEZ        CLEAR     28  14  54 N8        30.54F WCI  20
PINE BELT      PTCLDY    28  19  69 N10       30.48S WCI  19
$$

MSZ080>082-060600-
COASTAL MISSISSIPPI

CITY           SKY/WX    TMP DP  RH WIND       PRES   REMARKS
BILOXI         MOCLDY    34  23  64 N21       30.42S WCI  23
PASCAGOULA     MOCLDY    33  24  69 N20G29    30.41S WCI  21
GULFPORT       PTCLDY    34  21  59 N20       30.43R WCI  23
$$


USA.gov is the U.S. government's official web portal to all federal, state and local government web resources and services.